Wink, TX

12:18 PM CDT on May 23, 2018 (GMT -0500)
Winkler County

Weather History for KINK - December, 2011

Change the Weather History Date:

Thursday, December 29, 2011

  Actual Average Record
Temperature  
Mean Temperature 50 °F -  
Max Temperature 72 °F 58 °F 81 °F (2005)
Min Temperature 28 °F 30 °F 6 °F (1983)
Degree Days  
Heating Degree Days 15    
Moisture  
Dew Point 28 °F    
Average Humidity 55    
Maximum Humidity 93    
Minimum Humidity 17    
Precipitation  
Precipitation 0.00 in - - ()
Sea Level Pressure  
Sea Level Pressure 29.95 in    
Wind  
Wind Speed 6 mph (West)    
Max Wind Speed 13 mph    
Max Gust Speed -    
Visibility 10 miles    
Events      
Averages and records for this station are not official NWS values.
T = Trace of Precipitation, MM = Missing Value Source: NWS Daily Summary

Daily Weather History Graph

Daily Weather History Graph

Search for Another Location

Airport or City:

Astronomy

Dec. 29, 2011 Rise Set
Actual Time 7:51 AM CST 5:57 PM CST
Civil Twilight 7:25 AM CST 6:24 PM CST
Nautical Twilight 6:54 AM CST 6:55 PM CST
Astronomical Twilight 6:24 AM CST 7:24 PM CST
Moon 11:05 AM CST (12/29) 11:15 PM CST (12/29)
Length of Visible Light 10h 59m
Length of Day
10h 05m
Waxing Crescent, 27% of the Moon is Illuminated
Dec 29
Waxing Crescent
Jan 1
First Quarter
Jan 9
Full
Jan 16
Last Quarter
Jan 23
New

Hourly Weather History & Observations

Time (CST) Temp. Windchill Dew Point Humidity Pressure Visibility Wind Dir Wind Speed Gust Speed Precip Events Conditions
12:53 AM 32.0 °F 28.7 °F 28.9 °F 88% 30.05 in 10.0 mi West 3.5 mph - N/A   Clear
1:53 AM 28.9 °F 22.8 °F 27.0 °F 92% 30.04 in 10.0 mi North 5.8 mph - N/A   Clear
2:53 AM 30.0 °F 25.2 °F 28.0 °F 92% 30.03 in 10.0 mi NNW 4.6 mph - N/A   Clear
3:53 AM 30.0 °F 25.2 °F 27.0 °F 88% 30.02 in 10.0 mi NNW 4.6 mph - N/A   Clear
4:53 AM 28.4 °F 22.2 °F 26.6 °F 93% 30.03 in 10.0 mi NNW 5.8 mph - N/A   Clear
5:53 AM 28.0 °F 21.7 °F 25.0 °F 88% 30.01 in 10.0 mi North 5.8 mph - N/A   Clear
6:53 AM 28.0 °F 21.7 °F 26.1 °F 92% 30.02 in 10.0 mi North 5.8 mph - N/A   Clear
7:53 AM 28.0 °F - 26.1 °F 92% 30.02 in 10.0 mi Calm Calm - N/A   Clear
8:53 AM 33.1 °F - 28.0 °F 82% 30.04 in 10.0 mi Calm Calm - N/A   Clear
9:53 AM 42.1 °F - 32.0 °F 67% 30.04 in 10.0 mi Calm Calm - N/A   Clear
10:53 AM 50.0 °F - 30.2 °F 47% 30.04 in 10.0 mi Calm Calm - N/A   Clear
11:53 AM 57.0 °F - 28.0 °F 33% 29.98 in 10.0 mi SW 10.4 mph - N/A   Clear
12:53 PM 62.1 °F - 26.1 °F 25% 29.91 in 10.0 mi WSW 12.7 mph - N/A   Clear
1:53 PM 66.9 °F - 25.0 °F 21% 29.87 in 10.0 mi WSW 10.4 mph - N/A   Clear
2:53 PM 69.1 °F - 26.1 °F 20% 29.86 in 10.0 mi West 10.4 mph - N/A   Clear
3:53 PM 71.1 °F - 24.1 °F 17% 29.83 in 10.0 mi WSW 12.7 mph - N/A   Clear
4:53 PM 72.0 °F - 27.0 °F 19% 29.83 in 10.0 mi WSW 6.9 mph - N/A   Clear
5:53 PM 64.9 °F - 28.0 °F 25% 29.83 in 10.0 mi WSW 8.1 mph - N/A   Clear
6:53 PM 55.0 °F - 30.0 °F 38% 29.85 in 10.0 mi WSW 9.2 mph - N/A   Clear
7:53 PM 55.4 °F - 30.2 °F 38% 29.89 in 10.0 mi West 9.2 mph - N/A   Clear
8:53 PM 53.1 °F - 30.0 °F 41% 29.88 in 10.0 mi West 12.7 mph - N/A   Clear
9:53 PM 51.1 °F - 30.0 °F 44% 29.88 in 10.0 mi West 9.2 mph - N/A   Clear
10:53 PM 52.0 °F - 28.9 °F 41% 29.87 in 10.0 mi WSW 12.7 mph - N/A   Clear
11:53 PM 48.9 °F - 30.0 °F 48% 29.87 in 10.0 mi West 10.4 mph - N/A   Clear